Location: Minneapolis
(45.0000°N, 93.0000°W)
Time: 15:46:02
(UTC-05:00)

ISS - Pass Details

Date: 15 March 2018
Orbit: 402 x 407 km, 51.6° (Epoch: 25 June)

Event Time Altitude Azimuth Distance (km) Brightness Sun altitude
Exits shadow 04:50:58 22° 46° (NE) 968 -1.3 -27.1°
Drops below altitude 10° 04:52:39 10° 71° (ENE) 1,477 0.0 -26.9°
Enters shadow 05:50:04 -67° 288° (WNW) 12,205 3.6 -17.4°
Maximum altitude 06:26:41 80° 28° (NNE) 420 -3.7 -11.0°
